| time (UTC) | temp C | wind direction | speed KPH | gust KPH | rain 1hr cm | rain 24hr cm | rain mn cm | humidity % | barometer mb |
| 20260505224232 | 27 | 88 | 4.8 | 12.9 | 0.00 | 0.00 | 0.00 | 28 | 1011.7 |
| 20260505223727 | 27 | 123 | 6.4 | 12.9 | 0.00 | 0.00 | 0.00 | 28 | 1011.8 |
| 20260505223221 | 27 | 76 | 6.4 | 12.9 | 0.00 | 0.00 | 0.00 | 27 | 1011.8 |
| 20260505222735 | 26 | 69 | 3.2 | 9.7 | 0.00 | 0.00 | 0.00 | 29 | 1011.7 |
| 20260505222228 | 26 | 113 | 4.8 | 12.9 | 0.00 | 0.00 | 0.00 | 29 | 1011.8 |
| 20260505221721 | 26 | 66 | 4.8 | 12.9 | 0.00 | 0.00 | 0.00 | 29 | 1011.8 |
| 20260505215721 | 26 | 126 | 6.4 | 16.1 | 0.00 | 0.00 | 0.00 | 29 | 1012.0 |
| 20260505215219 | 27 | 102 | 4.8 | 9.7 | 0.00 | 0.00 | 0.00 | 29 | 1011.9 |
| 20260505214734 | 26 | 143 | 6.4 | 12.9 | 0.00 | 0.00 | 0.00 | 29 | 1011.8 |
| 20260505214225 | 26 | 130 | 4.8 | 12.9 | 0.00 | 0.00 | 0.00 | 30 | 1012.0 |
| 20260505212728 | 26 | 154 | 6.4 | 12.9 | 0.00 | 0.00 | 0.00 | 31 | 1012.1 |
| 20260505212221 | 26 | 104 | 8.0 | 16.1 | 0.00 | 0.00 | 0.00 | 30 | 1012.1 |
| 20260505211734 | 25 | 83 | 1.6 | 16.1 | 0.00 | 0.00 | 0.00 | 29 | 1012.1 |
| 20260505211227 | 26 | 109 | 6.4 | 12.9 | 0.00 | 0.00 | 0.00 | 31 | 1012.2 |
| 20260505210724 | 26 | 95 | 4.8 | 11.3 | 0.00 | 0.00 | 0.00 | 31 | 1012.1 |
| 20260505210217 | 26 | 111 | 4.8 | 14.5 | 0.00 | 0.00 | 0.00 | 31 | 1012.1 |
| 20260505205732 | 26 | 121 | 4.8 | 14.5 | 0.00 | 0.00 | 0.00 | 32 | 1012.2 |
| 20260505205225 | 25 | 84 | 3.2 | 11.3 | 0.00 | 0.00 | 0.00 | 32 | 1012.1 |
| 20260505203730 | 25 | 104 | 4.8 | 19.3 | 0.00 | 0.00 | 0.00 | 33 | 1012.3 |
| 20260505203223 | 25 | 104 | 3.2 | 19.3 | 0.00 | 0.00 | 0.00 | 32 | 1012.3 |
| 20260505202716 | 25 | 116 | 4.8 | 12.9 | 0.00 | 0.00 | 0.00 | 34 | 1012.2 |
| 20260505202235 | 25 | 72 | 6.4 | 14.5 | 0.00 | 0.00 | 0.00 | 33 | 1012.3 |
| 20260505201728 | 25 | 29 | 3.2 | 11.3 | 0.00 | 0.00 | 0.00 | 33 | 1012.4 |
| 20260505201222 | 25 | 85 | 3.2 | 16.1 | 0.00 | 0.00 | 0.00 | 34 | 1012.5 |
| 20260505200736 | 24 | 76 | 3.2 | 16.1 | 0.00 | 0.00 | 0.00 | 34 | 1012.5 |
| 20260505195723 | 24 | 111 | 3.2 | 12.9 | 0.00 | 0.00 | 0.00 | 34 | 1012.6 |
| 20260505194731 | 24 | 50 | 3.2 | 16.1 | 0.00 | 0.00 | 0.00 | 35 | 1012.7 |
| 20260505194227 | 24 | 124 | 6.4 | 16.1 | 0.00 | 0.00 | 0.00 | 35 | 1012.6 |
| 20260505193216 | 23 | 71 | 4.8 | 8.0 | 0.00 | 0.00 | 0.00 | 35 | 1012.7 |
| 20260505192731 | 23 | 95 | 3.2 | 8.0 | 0.00 | 0.00 | 0.00 | 35 | 1012.8 |
| 20260505192224 | 23 | 95 | 3.2 | 9.7 | 0.00 | 0.00 | 0.00 | 37 | 1012.8 |
| 20260505191718 | 23 | 99 | 4.8 | 9.7 | 0.00 | 0.00 | 0.00 | 35 | 1012.8 |
| 20260505190728 | 23 | 123 | 3.2 | 9.7 | 0.00 | 0.00 | 0.00 | 37 | 1012.7 |
| 20260505185721 | 23 | 17 | 0.0 | 9.7 | 0.00 | 0.00 | 0.00 | 37 | 1012.9 |
| 20260505184226 | 22 | 108 | 1.6 | 8.0 | 0.00 | 0.00 | 0.00 | 39 | 1012.9 |
| 20260505183719 | 22 | 42 | 1.6 | 8.0 | 0.00 | 0.00 | 0.00 | 41 | 1012.9 |
| 20260505183233 | 22 | 105 | 0.0 | 9.7 | 0.00 | 0.00 | 0.00 | 41 | 1012.9 |
| 20260505182727 | 21 | 105 | 3.2 | 9.7 | 0.00 | 0.00 | 0.00 | 40 | 1012.9 |
| 20260505182219 | 21 | 118 | 0.0 | 9.7 | 0.00 | 0.00 | 0.00 | 40 | 1012.9 |
| 20260505181733 | 22 | 107 | 3.2 | 9.7 | 0.00 | 0.00 | 0.00 | 41 | 1012.9 |
| 20260505181231 | 21 | 97 | 0.0 | 1.6 | 0.00 | 0.00 | 0.00 | 41 | 1012.8 |
| 20260505175228 | 20 | 51 | 0.0 | 8.0 | 0.00 | 0.00 | 0.00 | 45 | 1012.9 |
| 20260505174216 | 20 | 116 | 0.0 | 6.4 | 0.00 | 0.00 | 0.00 | 44 | 1013.0 |
| 20260505173731 | 20 | 114 | 1.6 | 6.4 | 0.00 | 0.00 | 0.00 | 44 | 1013.0 |
| 20260505173224 | 20 | 122 | 0.0 | 6.4 | 0.00 | 0.00 | 0.00 | 44 | 1012.9 |
| 20260505172717 | 20 | 104 | 0.0 | 6.4 | 0.00 | 0.00 | 0.00 | 45 | 1012.9 |
| 20260505172235 | 19 | 102 | 0.0 | 1.6 | 0.00 | 0.00 | 0.00 | 45 | 1012.9 |
| 20260505171727 | 18 | 101 | 0.0 | 0.0 | 0.00 | 0.00 | 0.00 | 47 | 1012.9 |
| 20260505163224 | 17 | 178 | 0.0 | 0.0 | 0.00 | 0.00 | 0.00 | 55 | 1013.1 |
| 20260505162716 | 16 | 173 | 0.0 | 1.6 | 0.00 | 0.00 | 0.00 | 56 | 1013.1 |
| 20260505162233 | 16 | 242 | 0.0 | 1.6 | 0.00 | 0.00 | 0.00 | 55 | 1013.1 |
| 20260505161222 | 16 | 138 | 0.0 | 1.6 | 0.00 | 0.00 | 0.00 | 58 | 1013.2 |
| 20260505160716 | 16 | 168 | 0.0 | 6.4 | 0.00 | 0.00 | 0.00 | 58 | 1013.2 |
| 20260505160229 | 15 | 213 | 3.2 | 6.4 | 0.00 | 0.00 | 0.00 | 57 | 1013.1 |
| 20260505153233 | 13 | 194 | 0.0 | 0.0 | 0.00 | 0.00 | 0.00 | 61 | 1013.2 |
| 20260505152727 | 12 | 252 | 0.0 | 1.6 | 0.00 | 0.00 | 0.00 | 60 | 1013.2 |
| 20260505152221 | 12 | 265 | 0.0 | 4.8 | 0.00 | 0.00 | 0.00 | 59 | 1013.1 |
| 20260505151735 | 12 | 235 | 0.0 | 3.2 | 0.00 | 0.00 | 0.00 | 59 | 1013.1 |
| 20260505151229 | 12 | 269 | 0.0 | 3.2 | 0.00 | 0.00 | 0.00 | 61 | 1013.1 |
| 20260505150720 | 13 | 173 | 0.0 | 1.6 | 0.00 | 0.00 | 0.00 | 61 | 1013.1 |
| 20260505150217 | 12 | 146 | 0.0 | 1.6 | 0.00 | 0.00 | 0.00 | 60 | 1013.0 |
| 20260505140221 | 9 | 236 | 0.0 | 0.0 | 0.00 | 0.00 | 0.00 | 69 | 1012.4 |
| 20260505130219 | 6 | 187 | 0.0 | 3.2 | 0.00 | 0.00 | 0.00 | 75 | 1011.7 |
| 20260505124722 | 6 | 270 | 0.0 | 1.6 | 0.00 | 0.00 | 0.00 | 75 | 1011.7 |
| 20260505124216 | 7 | 268 | 0.0 | 4.8 | 0.00 | 0.00 | 0.00 | 75 | 1011.6 |
| 20260505123731 | 6 | 216 | 3.2 | 4.8 | 0.00 | 0.00 | 0.00 | 76 | 1011.7 |
| 20260505123224 | 6 | 206 | 0.0 | 3.2 | 0.00 | 0.00 | 0.00 | 76 | 1011.6 |
| 20260505122718 | 6 | 215 | 1.6 | 3.2 | 0.00 | 0.00 | 0.00 | 77 | 1011.4 |
| 20260505122231 | 6 | 219 | 1.6 | 3.2 | 0.00 | 0.00 | 0.00 | 76 | 1011.4 |
| 20260505121724 | 7 | 174 | 1.6 | 3.2 | 0.00 | 0.00 | 0.00 | 75 | 1011.5 |
| 20260505121220 | 7 | 197 | 0.0 | 3.2 | 0.00 | 0.00 | 0.00 | 74 | 1011.4 |
| 20260505120733 | 7 | 197 | 0.0 | 3.2 | 0.00 | 0.00 | 0.00 | 74 | 1011.3 |
| 20260505120226 | 8 | 206 | 0.0 | 4.8 | 0.00 | 0.00 | 0.00 | 73 | 1011.2 |
| 20260505114730 | 8 | 258 | 0.0 | 0.0 | 0.00 | 0.00 | 0.00 | 71 | 1011.2 |
| 20260505114223 | 8 | 251 | 0.0 | 3.2 | 0.00 | 0.00 | 0.00 | 71 | 1011.2 |
| 20260505113717 | 8 | 256 | 0.0 | 4.8 | 0.00 | 0.00 | 0.00 | 70 | 1011.3 |
| 20260505113230 | 8 | 261 | 3.2 | 4.8 | 0.00 | 0.00 | 0.00 | 70 | 1011.4 |
| 20260505112726 | 8 | 263 | 1.6 | 3.2 | 0.00 | 0.00 | 0.00 | 70 | 1011.4 |
| 20260505111230 | 8 | 235 | 0.0 | 4.8 | 0.00 | 0.00 | 0.00 | 69 | 1011.3 |
| 20260505110723 | 9 | 249 | 3.2 | 4.8 | 0.00 | 0.00 | 0.00 | 68 | 1011.2 |
| 20260505110217 | 9 | 263 | 0.0 | 4.8 | 0.00 | 0.00 | 0.00 | 68 | 1011.2 |
| 20260505101723 | 10 | 256 | 4.8 | 8.0 | 0.00 | 0.00 | 0.00 | 68 | 1010.9 |
| 20260505101217 | 10 | 263 | 4.8 | 8.0 | 0.00 | 0.00 | 0.00 | 68 | 1011.0 |
| 20260505100734 | 10 | 264 | 4.8 | 9.7 | 0.00 | 0.00 | 0.00 | 67 | 1011.0 |
| 20260505100229 | 10 | 273 | 4.8 | 9.7 | 0.00 | 0.00 | 0.00 | 68 | 1010.9 |
| 20260505095721 | 10 | 274 | 0.0 | 0.0 | 0.00 | 0.00 | 0.00 | 68 | 1010.9 |
| 20260505095215 | 10 | 259 | 0.0 | 0.0 | 0.00 | 0.00 | 0.00 | 69 | 1010.9 |
| 20260505094224 | 10 | 185 | 0.0 | 0.0 | 0.00 | 0.00 | 0.00 | 68 | 1011.0 |
| 20260505093717 | 10 | 184 | 0.0 | 0.0 | 0.00 | 0.00 | 0.00 | 68 | 1011.0 |
| 20260505093231 | 11 | 248 | 0.0 | 0.0 | 0.00 | 0.00 | 0.00 | 67 | 1011.0 |
| 20260505092729 | 11 | 206 | 0.0 | 0.0 | 0.00 | 0.00 | 0.00 | 67 | 1011.0 |
| 20260505092221 | 11 | 209 | 0.0 | 0.0 | 0.00 | 0.00 | 0.00 | 67 | 1011.0 |
| 20260505091715 | 11 | 232 | 0.0 | 0.0 | 0.00 | 0.00 | 0.00 | 66 | 1010.9 |
| 20260505091229 | 11 | 178 | 0.0 | 0.0 | 0.00 | 0.00 | 0.00 | 66 | 1010.9 |
| 20260505090723 | 11 | 260 | 0.0 | 1.6 | 0.00 | 0.00 | 0.00 | 64 | 1010.9 |
| 20260505090236 | 12 | 192 | 0.0 | 1.6 | 0.00 | 0.00 | 0.00 | 63 | 1010.9 |
| 20260505085729 | 12 | 284 | 0.0 | 0.0 | 0.00 | 0.00 | 0.00 | 62 | 1010.8 |
| 20260505085221 | 12 | 284 | 0.0 | 0.0 | 0.00 | 0.00 | 0.00 | 61 | 1010.8 |
| 20260505084719 | 12 | 286 | 0.0 | 0.0 | 0.00 | 0.00 | 0.00 | 61 | 1010.8 |
| 20260505084232 | 12 | 258 | 0.0 | 0.0 | 0.00 | 0.00 | 0.00 | 60 | 1010.8 |
| 20260505083221 | 12 | 331 | 0.0 | 0.0 | 0.00 | 0.00 | 0.00 | 60 | 1010.8 |
| 20260505082735 | 12 | 270 | 0.0 | 0.0 | 0.00 | 0.00 | 0.00 | 60 | 1010.8 |
| 20260505082230 | 12 | 256 | 0.0 | 0.0 | 0.00 | 0.00 | 0.00 | 61 | 1010.8 |
| 20260505081723 | 12 | 256 | 0.0 | 0.0 | 0.00 | 0.00 | 0.00 | 60 | 1010.8 |
| 20260505081216 | 12 | 256 | 0.0 | 0.0 | 0.00 | 0.00 | 0.00 | 60 | 1010.8 |
| 20260505080733 | 13 | 256 | 0.0 | 0.0 | 0.00 | 0.00 | 0.00 | 60 | 1010.9 |
| 20260505080226 | 13 | 256 | 0.0 | 0.0 | 0.00 | 0.00 | 0.00 | 60 | 1010.9 |
| 20260505075720 | 13 | 202 | 0.0 | 0.0 | 0.00 | 0.00 | 0.00 | 60 | 1010.9 |
| 20260505075234 | 13 | 202 | 0.0 | 0.0 | 0.00 | 0.00 | 0.00 | 59 | 1010.9 |
| 20260505074727 | 13 | 202 | 0.0 | 0.0 | 0.00 | 0.00 | 0.00 | 59 | 1010.9 |
| 20260505074221 | 13 | 202 | 0.0 | 0.0 | 0.00 | 0.00 | 0.00 | 59 | 1010.9 |
| 20260505073735 | 13 | 202 | 0.0 | 0.0 | 0.00 | 0.00 | 0.00 | 58 | 1010.8 |
| 20260505072726 | 14 | 356 | 0.0 | 0.0 | 0.00 | 0.00 | 0.00 | 56 | 1010.8 |
| 20260505071734 | 15 | 12 | 0.0 | 3.2 | 0.00 | 0.00 | 0.00 | 55 | 1010.7 |
| 20260505071230 | 15 | 332 | 0.0 | 1.6 | 0.00 | 0.00 | 0.00 | 55 | 1010.7 |
| 20260505070723 | 15 | 68 | 0.0 | 4.8 | 0.00 | 0.00 | 0.00 | 54 | 1010.6 |
| 20260505070216 | 15 | 26 | 1.6 | 11.3 | 0.00 | 0.00 | 0.00 | 54 | 1010.5 |
| 20260505065730 | 15 | 7 | 0.0 | 12.9 | 0.00 | 0.00 | 0.00 | 53 | 1010.5 |
| 20260505065224 | 15 | 20 | 4.8 | 11.3 | 0.00 | 0.00 | 0.00 | 53 | 1010.4 |
| 20260505064722 | 15 | 87 | 1.6 | 9.7 | 0.00 | 0.00 | 0.00 | 52 | 1010.4 |
| 20260505064216 | 16 | 351 | 3.2 | 9.7 | 0.00 | 0.00 | 0.00 | 52 | 1010.4 |
| 20260505063729 | 16 | 34 | 3.2 | 12.9 | 0.00 | 0.00 | 0.00 | 51 | 1010.4 |
| 20260505063222 | 16 | 55 | 6.4 | 16.1 | 0.00 | 0.00 | 0.00 | 50 | 1010.3 |
| 20260505062716 | 16 | 349 | 8.0 | 16.1 | 0.00 | 0.00 | 0.00 | 49 | 1010.3 |
| 20260505062229 | 16 | 19 | 4.8 | 11.3 | 0.00 | 0.00 | 0.00 | 49 | 1010.3 |
| 20260505061218 | 16 | 354 | 1.6 | 14.5 | 0.00 | 0.00 | 0.00 | 49 | 1010.4 |
| 20260505060715 | 16 | 346 | 4.8 | 14.5 | 0.00 | 0.00 | 0.00 | 48 | 1010.3 |
| 20260505060229 | 16 | 9 | 0.0 | 12.9 | 0.00 | 0.00 | 0.00 | 48 | 1010.4 |
| 20260505055722 | 16 | 20 | 6.4 | 12.9 | 0.00 | 0.00 | 0.00 | 48 | 1010.4 |
| 20260505055216 | 17 | 352 | 8.0 | 14.5 | 0.00 | 0.00 | 0.00 | 48 | 1010.4 |
| 20260505054729 | 17 | 348 | 8.0 | 14.5 | 0.00 | 0.00 | 0.00 | 48 | 1010.3 |
| 20260505054223 | 17 | 13 | 4.8 | 16.1 | 0.00 | 0.00 | 0.00 | 48 | 1010.3 |
| 20260505053717 | 17 | 315 | 8.0 | 16.1 | 0.00 | 0.00 | 0.00 | 48 | 1010.2 |
| 20260505053230 | 17 | 5 | 9.7 | 19.3 | 0.00 | 0.00 | 0.00 | 48 | 1010.1 |
| 20260505052727 | 17 | 323 | 9.7 | 19.3 | 0.00 | 0.00 | 0.00 | 48 | 1010.2 |
| 20260505052220 | 16 | 349 | 9.7 | 16.1 | 0.00 | 0.00 | 0.00 | 49 | 1010.1 |
| 20260505051734 | 16 | 10 | 3.2 | 9.7 | 0.00 | 0.00 | 0.00 | 50 | 1010.2 |
| 20260505051227 | 16 | 69 | 0.0 | 3.2 | 0.00 | 0.00 | 0.00 | 50 | 1010.2 |
| 20260505050720 | 16 | 342 | 0.0 | 3.2 | 0.00 | 0.00 | 0.00 | 49 | 1010.1 |
| 20260505050233 | 16 | 90 | 0.0 | 3.2 | 0.00 | 0.00 | 0.00 | 49 | 1010.2 |
| 20260505041215 | 18 | 358 | 9.7 | 12.9 | 0.00 | 0.00 | 0.00 | 42 | 1009.6 |
| 20260505035725 | 18 | 108 | 4.8 | 9.7 | 0.00 | 0.00 | 0.00 | 40 | 1009.4 |
| 20260505035219 | 19 | 102 | 1.6 | 8.0 | 0.00 | 0.00 | 0.00 | 40 | 1009.3 |
| 20260505034733 | 19 | 143 | 1.6 | 9.7 | 0.00 | 0.00 | 0.00 | 39 | 1009.2 |
| 20260505033216 | 20 | 85 | 1.6 | 6.4 | 0.00 | 0.00 | 0.00 | 35 | 1009.0 |
| 20260505032730 | 20 | 51 | 0.0 | 12.9 | 0.00 | 0.00 | 0.00 | 33 | 1008.9 |
| 20260505032224 | 21 | 20 | 1.6 | 12.9 | 0.00 | 0.00 | 0.00 | 27 | 1008.8 |
| 20260505031721 | 21 | 1 | 3.2 | 11.3 | 0.00 | 0.00 | 0.00 | 26 | 1008.8 |
| 20260505031214 | 21 | 353 | 4.8 | 9.7 | 0.00 | 0.00 | 0.00 | 26 | 1008.7 |
| 20260505030728 | 21 | 69 | 0.0 | 9.7 | 0.00 | 0.00 | 0.00 | 26 | 1008.6 |
| 20260505025716 | 21 | 91 | 3.2 | 9.7 | 0.00 | 0.00 | 0.00 | 25 | 1008.4 |
| 20260505025232 | 22 | 40 | 1.6 | 9.7 | 0.00 | 0.00 | 0.00 | 24 | 1008.3 |
| 20260505024725 | 22 | 46 | 1.6 | 17.7 | 0.00 | 0.00 | 0.00 | 24 | 1008.2 |
| 20260505024218 | 22 | 93 | 3.2 | 17.7 | 0.00 | 0.00 | 0.00 | 23 | 1008.1 |
| 20260505023715 | 23 | 97 | 4.8 | 8.0 | 0.00 | 0.00 | 0.00 | 23 | 1008.1 |
| 20260505023231 | 23 | 80 | 3.2 | 14.5 | 0.00 | 0.00 | 0.00 | 23 | 1008.1 |
| 20260505022221 | 23 | 56 | 4.8 | 9.7 | 0.00 | 0.00 | 0.00 | 23 | 1008.1 |
| 20260505021734 | 23 | 31 | 3.2 | 16.1 | 0.00 | 0.00 | 0.00 | 24 | 1008.0 |
| 20260505020721 | 23 | 72 | 3.2 | 16.1 | 0.00 | 0.00 | 0.00 | 24 | 1008.0 |
| 20260505020234 | 24 | 83 | 6.4 | 17.7 | 0.00 | 0.00 | 0.00 | 24 | 1008.0 |
| 20260505015729 | 24 | 119 | 6.4 | 17.7 | 0.00 | 0.00 | 0.00 | 23 | 1008.0 |
| 20260505015227 | 25 | 353 | 8.0 | 17.7 | 0.00 | 0.00 | 0.00 | 23 | 1007.9 |
| 20260505014720 | 25 | 13 | 3.2 | 11.3 | 0.00 | 0.00 | 0.00 | 25 | 1007.9 |
| 20260505014214 | 25 | 360 | 4.8 | 9.7 | 0.00 | 0.00 | 0.00 | 26 | 1007.9 |
| 20260505013730 | 25 | 89 | 4.8 | 12.9 | 0.00 | 0.00 | 0.00 | 26 | 1007.8 |
| 20260505013223 | 25 | 64 | 4.8 | 14.5 | 0.00 | 0.00 | 0.00 | 25 | 1007.9 |
| 20260505012716 | 25 | 62 | 6.4 | 19.3 | 0.00 | 0.00 | 0.00 | 25 | 1007.8 |
| 20260505012229 | 25 | 78 | 6.4 | 19.3 | 0.00 | 0.00 | 0.00 | 26 | 1007.9 |
| 20260505011729 | 25 | 57 | 6.4 | 17.7 | 0.00 | 0.00 | 0.00 | 26 | 1007.9 |
| 20260505011221 | 25 | 76 | 4.8 | 17.7 | 0.00 | 0.00 | 0.00 | 25 | 1007.9 |
| 20260505005223 | 25 | 76 | 4.8 | 17.7 | 0.00 | 0.00 | 0.00 | 25 | 1007.9 |
| 20260505004716 | 25 | 84 | 3.2 | 25.7 | 0.00 | 0.00 | 0.00 | 25 | 1007.9 |
| 20260505004231 | 26 | 112 | 11.3 | 25.7 | 0.00 | 0.00 | 0.00 | 24 | 1008.0 |
| 20260505003218 | 26 | 20 | 6.4 | 20.9 | 0.00 | 0.00 | 0.00 | 24 | 1008.0 |
| 20260505002715 | 26 | 109 | 4.8 | 19.3 | 0.00 | 0.00 | 0.00 | 24 | 1008.1 |
| 20260505002230 | 26 | 71 | 4.8 | 19.3 | 0.00 | 0.00 | 0.00 | 24 | 1008.1 |
| 20260505001218 | 26 | 10 | 6.4 | 12.9 | 0.00 | 0.00 | 0.00 | 23 | 1008.1 |
| 20260505000731 | 26 | 292 | 4.8 | 17.7 | 0.00 | 0.00 | 0.00 | 23 | 1008.1 |
| 20260505000226 | 26 | 85 | 8.0 | 17.7 | 0.00 | 0.00 | 0.00 | 23 | 1008.2 |
| 20260504235214 | 27 | 93 | 9.7 | 17.7 | 0.00 | 0.00 | 0.00 | 23 | 1008.1 |
| 20260504234730 | 27 | 69 | 6.4 | 29.0 | 0.00 | 0.00 | 0.00 | 22 | 1008.1 |
| 20260504234227 | 27 | 93 | 8.0 | 29.0 | 0.00 | 0.00 | 0.00 | 22 | 1008.2 |
| 20260504233720 | 27 | 102 | 4.8 | 12.9 | 0.00 | 0.00 | 0.00 | 22 | 1008.1 |
| 20260504233234 | 27 | 85 | 8.0 | 12.9 | 0.00 | 0.00 | 0.00 | 22 | 1008.1 |
| 20260504232724 | 27 | 86 | 4.8 | 12.9 | 0.00 | 0.00 | 0.00 | 22 | 1008.1 |
| 20260504232218 | 27 | 31 | 6.4 | 16.1 | 0.00 | 0.00 | 0.00 | 23 | 1008.1 |
| 20260504231732 | 27 | 52 | 4.8 | 17.7 | 0.00 | 0.00 | 0.00 | 22 | 1008.0 |
| 20260504231225 | 27 | 62 | 4.8 | 17.7 | 0.00 | 0.00 | 0.00 | 21 | 1008.1 |
| 20260504230722 | 27 | 50 | 6.4 | 12.9 | 0.00 | 0.00 | 0.00 | 22 | 1008.2 |
| 20260504230214 | 26 | 97 | 3.2 | 14.5 | 0.00 | 0.00 | 0.00 | 22 | 1008.2 |
| 20260504225727 | 26 | 349 | 6.4 | 14.5 | 0.00 | 0.00 | 0.00 | 21 | 1008.4 |
| 20260504225221 | 27 | 100 | 4.8 | 14.5 | 0.00 | 0.00 | 0.00 | 22 | 1008.3 |
| 20260504224735 | 26 | 115 | 6.4 | 19.3 | 0.00 | 0.00 | 0.00 | 22 | 1008.4 |